User: anonymous   Login
Location: Unspecified
(0.0000°N, 0.0000°E)
Time: 22:34:02
(UTC+00:00)
Language:

RS-13 - Orbit

View from above orbital plane
View from above orbital plane
View from above satellite
View from above satellite

Ground track
Ground track

The orbit data is extracted from the following two-line orbital elements,

1 21089U 91007A   18202.87973568 +.00000023 +00000-0 +79934-5 0  9995
2 21089 082.9250 321.0519 0030552 074.9062 041.8355 13.74658328377260
Epoch (UTC): 21 July 2018 21:06:49
Eccentricity: 0.0030552
inclination: 82.9250°
perigee height: 960 km
apogee height: 1005 km
right ascension of ascending node: 321.0519°
argument of perigee: 74.9062°
revolutions per day: 13.74658328
mean anomaly at epoch: 41.8355°
orbit number at epoch: 37726

The dashed part of the orbit path shows where the satellite is in the earth's shadow,  

DLR